Simultaneous Nadir Overpasses (SNOs) Predictions

Prediction of SNOs between GOES-17 and NOAA-20 Satellite Orbit:

Table of predicted SNOs for the next 14.0 days since TLE Epoch: 1/15/2022
Index Date Time (GOES-17) GOES-17 Lat,Lon NOAA-20 Lat,Lon Distance(km) Time Diff (sec)
1 01/15/2022 10:44:58 -0.03,-137.21 0.50,-139.64 276.53 80
2 01/16/2022 10:23:34 -0.03,-137.24 -0.50,-135.11 242.33 80
3 01/17/2022 22:45:33 0.03,-137.27 -0.66,-140.43 359.48 80
4 01/18/2022 22:29:30 0.03,-137.29 0.34,-135.90 159.07 80
5 01/20/2022 10:51:20 -0.03,-137.34 0.81,-141.18 437.75 80
6 01/21/2022 10:29:57 -0.03,-137.36 -0.19,-136.65 80.32 80
7 01/23/2022 22:33:13 0.03,-137.40 0.03,-137.44 4.85 80
8 01/26/2022 10:38:59 -0.03,-137.44 0.12,-138.19 84.97 80
9 01/27/2022 10:17:36 -0.02,-137.45 -0.88,-133.66 432.16 80
10 01/28/2022 22:39:33 -0.02,-137.45 -0.38,-138.96 171.97 80
